Home   Weather   Skien   Past weeks

Flag for Norway Past Weather in Skien, Norway — Yesterday and Last 2 Weeks

41 °F

Passing clouds.

Feels Like: 36 °F
Forecast: 28 / 48 °F
Wind: 8 mph from North

Location: Torp

Current Time: Oct 25, 2016 at 8:39:39 AM

Latest Report: Oct 25, 2016 at 7:50 AM

Visibility: N/A

Pressure: 30.27 "Hg

Humidity: 100%

Dew Point: 41 °F

Location of SkienLocation

Past Weather in Skien — Graph


Skien Temperature Yesterday

Maximum temperature yesterday: 43 °F (at 12:50 AM)
Minimum temperature yesterday: 39 °F (at 11:20 PM)
Average temperature yesterday: 42 °F

High & Low Weather Summary for the Past Weeks

High46 °F (Oct 17, 8:20 PM)100% (Oct 10, 7:20 AM)30.57 "Hg (Oct 10, 7:20 AM)
Low32 °F (Oct 14, 11:50 AM)70% (Oct 15, 11:50 AM)30.09 "Hg (Oct 18, 2:20 PM)
Average41 °F93%30.35 "Hg
* Reported Oct 10 7:20 AM — Oct 25 7:20 AM, Skien, Weather by CustomWeather, © 2016

Note: Actual official high and low records may vary slightly from our data, if they occured in-between our weather recording intervals... More about our weather records


Skien Weather History for the Previous 24 Hours

Scroll right to see more
Time TempWeatherWind HumidityBarometerVisibility
7:20 AM
Tue, Oct 25
41 °FMostly cloudy.6 mph100%30.27 "HgN/A
6:50 AM41 °FMostly cloudy.6 mph100%30.27 "HgN/A
6:20 AM41 °FDrizzle. Low clouds.7 mph100%30.24 "HgN/A
5:50 AM41 °FLight rain. Mostly cloudy.8 mph100%30.24 "HgN/A
5:20 AM41 °FLight rain. Low clouds.8 mph100%30.24 "HgN/A
4:50 AM41 °FLow clouds.6 mph100%30.24 "HgN/A
4:20 AM41 °FDrizzle. Low clouds.6 mph100%30.24 "HgN/A
3:50 AM41 °FDrizzle. Low clouds.8 mph100%30.24 "HgN/A
3:20 AM41 °FLight rain. Low clouds.9 mph100%30.24 "Hg6 mi
2:50 AM41 °FLight rain. Light fog.9 mph100%30.24 "Hg4 mi
2:20 AM41 °FRain. Mostly cloudy.7 mph100%30.24 "Hg5 mi
1:50 AM41 °FLight rain. Passing clouds.8 mph100%30.24 "HgN/A
1:20 AM41 °FRain. Mostly cloudy.8 mph100%30.24 "Hg4 mi
12:50 AM41 °FLight snow. Passing clouds.8 mph100%30.24 "Hg3 mi
12:20 AM41 °FLight rain. Mostly cloudy.12 mph100%30.24 "Hg3 mi
11:50 PM
Mon, Oct 24
41 °FLight snow. Fog.6 mph100%30.24 "Hg3 mi
11:20 PM39 °FLight rain. Fog.10 mph100%30.24 "Hg3 mi
10:50 PM41 °FLight rain. Fog.10 mph100%30.24 "Hg3 mi
10:20 PM41 °FLight rain. Passing clouds.15 mph100%30.24 "Hg3 mi
9:50 PM41 °FLight rain. Passing clouds.12 mph100%30.24 "Hg6 mi
9:20 PM41 °FLight rain. Passing clouds.10 mph100%30.27 "HgN/A
8:50 PM41 °FLight rain. Passing clouds.10 mph100%30.27 "HgN/A
8:20 PM43 °FLight rain. Passing clouds.9 mph100%30.27 "Hg6 mi
7:50 PM43 °FPassing clouds.10 mph100%30.27 "HgN/A
7:20 PM43 °FPassing clouds.10 mph100%30.27 "HgN/A
6:50 PM43 °FPassing clouds.9 mph100%30.27 "HgN/A
6:20 PM43 °FPartly cloudy.12 mph100%30.24 "HgN/A
5:50 PM43 °FPassing clouds.10 mph100%30.24 "HgN/A
5:20 PM43 °FDrizzle. Broken clouds.9 mph100%30.27 "HgN/A
4:50 PM43 °FDrizzle. Partly sunny.12 mph100%30.27 "Hg6 mi
4:20 PM43 °FLight rain. Partly sunny.12 mph100%30.27 "Hg4 mi
3:50 PM43 °FLight rain. Partly sunny.10 mph100%30.27 "HgN/A
3:20 PM43 °FLight rain. Partly sunny.9 mph100%30.27 "Hg6 mi
2:50 PM41 °FDrizzle. Partly sunny.10 mph100%30.27 "HgN/A
2:20 PM41 °FDrizzle. Partly sunny.12 mph100%30.27 "HgN/A
1:50 PM41 °FDrizzle. Partly sunny.12 mph100%30.27 "HgN/A
1:20 PM41 °FLight rain. Partly sunny.10 mph100%30.27 "Hg4 mi
12:50 PM41 °FDrizzle. Partly sunny.10 mph100%30.27 "Hg4 mi
12:20 PM41 °FPartly sunny.9 mph100%30.30 "HgN/A
11:50 AM41 °FLight rain. Partly sunny.10 mph100%30.30 "HgN/A
11:20 AM43 °FDrizzle. Partly sunny.10 mph100%30.30 "HgN/A
10:50 AM41 °FDrizzle. Partly sunny.9 mph100%30.30 "HgN/A
10:20 AM41 °FOvercast.9 mph100%30.30 "HgN/A
9:50 AM41 °FDrizzle. Low clouds.8 mph100%30.30 "HgN/A
9:20 AM41 °FLow clouds.7 mph100%30.30 "HgN/A
8:50 AM41 °FLow clouds.6 mph100%30.30 "HgN/A
8:20 AM41 °FDrizzle. Overcast.7 mph100%30.27 "HgN/A
Weather by CustomWeather, © 2016

See weather overviewHow to use our weather pages